Location: Cassano d�Adda
(45.5333°N, 9.5167°E)
Time: 16:11:45
(UTC+00:00)

Cosmos 1190 Rocket - Pass Details

Date: 08 December 2019
Orbit: 756 x 780 km, 74.1° (Epoch: 24 January)

Event Time Altitude Azimuth Distance (km) Brightness Sun altitude
Rises 18:10:50 0° 196° (SSW) 3,208 7.5 -25.8°
Reaches altitude 10° 18:13:12 10° 195° (SSW) 2,284 6.7 -26.2°
Enters shadow 18:17:28 60° 179° (S) 864 4.2 -26.9°
